User: anonymous   Login
Location: Vancouver
(49.2500°N, 123.1330°W)
Time: 06:38:18
(UTC-08:00)
Language:

ERS-2 - Orbit

View from above orbital plane
View from above orbital plane
View from above satellite
View from above satellite

Ground track
Ground track

The orbit data is extracted from the following two-line orbital elements,

1 23560U 95021A   15030.74961616  .00007148  00000-0  40280-3 0  2307
2 23560 098.5400 262.9826 0004906 009.5303 350.6020 15.13567279 43647
Epoch (UTC): 30 January 2015 17:59:26
Eccentricity: 0.0004906
inclination: 98.5400°
perigee height: 522 km
apogee height: 529 km
right ascension of ascending node: 262.9826°
argument of perigee: 9.5303°
revolutions per day: 15.13567279
mean anomaly at epoch: 350.6020°
orbit number at epoch: 4364

The dashed part of the orbit path shows where the satellite is in the earth's shadow,  

DLR